Regional Weather Roundup
Issued by NWS Little Rock, AR

Home | Current Version | Previous Version | Graphics & Text | Print | Product List | Glossary On
Versions: 1 2 3 4 5 6 7 8 9 10 11 12 13 14 15 16 17 18 19 20 21 22 23 24 25 26 27 28 29 30 31 32 33 34 35 36 37 38 39 40 41 42 43 44 45 46 47 48 49 50
000
ASUS44 KLZK 221505
RWRLZK

WEATHER ROUNDUP FOR ARKANSAS
NATIONAL WEATHER SERVICE LITTLE ROCK AR
1000 AM CDT TUE JUL 22 2014

NOTE: "FAIR" INDICATES FEW OR NO CLOUDS BELOW 12,000 FEET WITH NO
SIGNIFICANT WEATHER AND/OR OBSTRUCTIONS TO VISIBILITY.

ARZ001-003-010-029-221600-
NORTHWEST ARKANSAS

CITY           SKY/WX    TMP DP  RH WIND       PRES   REMARKS
FAYETTEVILLE   SUNNY     80  70  71 CALM      30.14S
FORT SMITH     SUNNY     80  70  71 CALM      30.10S
HARRISON       SUNNY     81  69  67 VRB3      30.13F
BENTONVILLE    SUNNY     81  70  69 W7        30.15F
ROGERS         SUNNY     81  70  69 SW5       30.15S
SILOAM SPGS    SUNNY     81  68  65 W9        30.15S
HIGHFILL       SUNNY     81  72  74 SW6       30.13F HX  85
SPRINGDALE     SUNNY     79  70  73 W7        30.16S
$$

ARZ004-005-016-221600-
NORTH CENTRAL ARKANSAS

CITY           SKY/WX    TMP DP  RH WIND       PRES   REMARKS
BATESVILLE     SUNNY     79  70  73 W3        30.10F
FLIPPIN        SUNNY     79  66  65 SW3       30.11F
MTN HOME       SUNNY     77  68  73 S6        30.11F
$$

ARZ040-041-221600-
WEST CENTRAL ARKANSAS

CITY           SKY/WX    TMP DP  RH WIND       PRES   REMARKS
MENA           MOSUNNY   75  72  88 CALM      30.14F
MOUNT IDA      MOSUNNY   72  70  93 CALM      30.10F
$$

ARZ009-017-025-026-028-221600-
NORTHEAST ARKANSAS

CITY           SKY/WX    TMP DP  RH WIND       PRES   REMARKS
CORNING        LGT RAIN  79  68  69 CALM      30.10S
JONESBORO      SUNNY     80  66  62 CALM      30.08F
NEWPORT        SUNNY     81  68  64 CALM      30.10F
WALNUT RIDGE   SUNNY     79   3   5 CALM      30.09S
BLYTHEVILLE    SUNNY     83  70  64 VRB3      30.09S HX  87
NW BLYTHEVILLE SUNNY     82  70  65 CALM      30.08F HX  86
$$

ARZ022-023-033-042-044-221600-
CENTRAL ARKANSAS

CITY           SKY/WX    TMP DP  RH WIND       PRES   REMARKS
LITTLE ROCK    MOSUNNY   82  67  60 CALM      30.10S
N LITTLE ROCK  MOSUNNY   79  70  73 SW5       30.10S
SEARCY         SUNNY     82  69  64 CALM      30.11S HX  85
HOT SPRINGS    SUNNY     77  70  79 CALM      30.12S
RUSSELLVILLE   SUNNY     78  69  73 VRB3      30.10F
CLINTON        FAIR      75  70  83 CALM      30.12F HAZE
$$

ARZ036-221600-
EAST ARKANSAS

CITY           SKY/WX    TMP DP  RH WIND       PRES   REMARKS
WEST MEMPHIS   SUNNY     83  69  62 E6        30.07F HX  86
$$

ARZ050-053-066-070-073-221600-
SOUTHWEST ARKANSAS

CITY           SKY/WX    TMP DP  RH WIND       PRES   REMARKS
ARKADELPHIA    FAIR      80  71  74 CALM      30.10F
CAMDEN         SUNNY     82  68  61 CALM      30.09F HX  85
TEXARKANA      SUNNY     81  70  69 SE7       30.10S
EL DORADO      SUNNY     81  70  69 CALM      30.09F
DE QUEEN       SUNNY     78  71  79 CALM      30.09S
$$

ARZ056-057-069-221600-
SOUTHEAST ARKANSAS

CITY           SKY/WX    TMP DP  RH WIND       PRES   REMARKS
PINE BLUFF     SUNNY     80  69  69 NE5       30.09F
STUTTGART      SUNNY     79  70  73 NE3       30.10S
MONTICELLO     SUNNY     81  69  67 E5        30.09S

$$




USA.gov is the U.S. government's official web portal to all federal, state and local government web resources and services.